Regional Weather Roundup
Issued by NWS Newport/Morehead, NC

Home | Current Version | Previous Version | Text Only | Print | Product List | Glossary On
Versions: 1 2 3 4 5 6 7 8 9 10 11 12 13 14 15 16 17 18 19 20 21 22 23 24 25 26 27 28 29 30 31 32 33 34 35 36 37 38 39 40 41 42 43 44 45 46 47 48 49 50
000
ASUS42 KMHX 271422
RWRMHX
WEATHER ROUNDUP FOR EASTERN NORTH CAROLINA
NATIONAL WEATHER SERVICE NEWPORT/MOREHEAD CITY NC
1000 AM EDT WED AUG 27 2014

NOTE: "FAIR" INDICATES FEW OR NO CLOUDS BELOW 12,000 FEET
WITH NO SIGNIFICANT WEATHER AND/OR OBSTRUCTIONS TO VISIBILITY

NCZ015>017-031-032-045>047-102-103-271500-
NORTH COAST

CITY           SKY/WX    TMP DP  RH WIND       PRES   REMARKS
EDENTON        PTSUNNY   78  71  80 NE8       30.04R
ELIZABETH CITY PTSUNNY   78  70  76 NE15      30.03S
KITTY HAWK     PTSUNNY   78  73  85 N8G21     30.01R
MANTEO         CLOUDY    78  73  83 N14G21    30.01S

$$

NCZ045>047-081-094-103-104-271500-
CENTRAL COAST

CITY           SKY/WX    TMP DP  RH WIND       PRES   REMARKS
FRISCO         PTSUNNY   79  75  87 NE13G24   29.97R
SWANQUARTER      N/A     81 N/A N/A N7G18     29.97S

$$

NCZ095-097-098-100-101-271500-
SOUTHERN COAST

CITY           SKY/WX    TMP DP  RH WIND       PRES   REMARKS
BEAUFORT       PTSUNNY   77  71  82 N20G26    29.99R
CEDAR ISLAND     N/A     79 N/A N/A N21       30.03S
JACKSONVILLE   MOSUNNY   75  66  73 N15       30.02S
NEWPORT        NOT AVBL
PINEY ISLAND   CLOUDY    80  74  81 N17G25    29.99R
WILMINGTON     SUNNY     77  67  71 N10       30.01R


$$

NCZ011>013-027>030-043-044-078>080-089-090>093-098-271500-
COASTAL PLAIN

CITY           SKY/WX    TMP DP  RH WIND       PRES   REMARKS
AHOSKIE        SUNNY     71  65  81 N8        30.07S
CLINTON        SUNNY     73  66  80 NE7       30.06S
ELIZABETHTOWN  SUNNY     75  64  67 CALM      30.04F
GOLDSBORO      MOSUNNY   72  70  94 N10       30.04S
GREENVILLE     LGT RAIN  72  68  88 N8        30.07S
HAVELOCK       PTSUNNY   76  70  82 N13       30.02R
KENANSVILLE    SUNNY     72  66  80 N8        30.05S
KINSTON        PTSUNNY   75  68  78 N8        30.05F
NEW BERN       CLOUDY    75  68  78 N9        30.03S
RICHLANDS      MOSUNNY   72  64  78 N10       30.04S
ROANOKE RAPIDS NOT AVBL
ROCKY MOUNT    SUNNY     72  64  76 N7        30.07S
WASHINGTON     PTSUNNY   74  68  83 N8        30.04S
WHITEVILLE     SUNNY     76  65  68 N5        30.03S

$$

AMZ130-135-150-152-154-156-158-170-250-252-270-ANZ085-086-088-633-658-670-271500-
MARINE OBSERVATIONS

STATION/POSITION TIME  TEMP    WIND        PRES    WAVE   SWELL
                       AIR SEA DIR/SP/G            HT/PER HT/PER
                 (UTC) (F)     (DEG/KT/KT) (MB)    (FT/S) (FT/S)
CHESAPEAKE LIGHT 1400   73      30/ 15/ 16 1017.9
BUOY 44014       1400   77 78   40/ 17/ 19 1015.7    7/11   7/11
DUCK             1400   74 76   20/ 18/ 20 1015.7
2E DUCK          1400                        N/A     5/13   3/13
OREGON INLET     1400   78 77   10/ 12/ 19 1015.6
BUOY 44095       1400      76                N/A     7/11   3/11
20E OREGON INLET NOT AVBL
HATTERAS CG      1400   77 78   20/ 19/ 23 1015.2
DIAMOND BUOY     1400   79      10/ 21/ 25 1013.3    8/ 8   5/10
CAPE LOOKOUT     1400   76     360/ 19/ 22 1014.9
BEAUFORT LAB     1400   77 78   20/ 19/ 22 1014.9
30 SE NEW RIVER  1400   76 80   10/ 19/ 23 1014.6    6/13   3/13
5 SE WRIGHTSVILL 1400   72 80   10/ 16/ 19   N/A
BUOY 41002       1312   79 81  340/ 23/ 29 1007.6   14/10   7/12
BUOY 41004       1400   79 83   20/ 17/ 21 1014.4    7/12   5/12

$$


USA.gov is the U.S. government's official web portal to all federal, state and local government web resources and services.